TimeCDT,TemperatureF,Dew PointF,Humidity,Sea Level PressureIn,VisibilityMPH,Wind Direction,Wind SpeedMPH,Gust SpeedMPH,PrecipitationIn,Events,Conditions,WindDirDegrees,DateUTC
12:27 AM,66.2,62.6,88,30.06,10.0,North,13.8,-,N/A,,Mostly Cloudy,360,2013-08-08 05:27:00
12:34 AM,66.2,62.6,88,30.06,10.0,North,15.0,-,N/A,,Mostly Cloudy,10,2013-08-08 05:34:00
12:53 AM,66.9,62.1,84,29.89,10.0,North,11.5,-,N/A,,Mostly Cloudy,10,2013-08-08 05:53:00
1:53 AM,66.0,61.0,84,29.86,10.0,NNE,10.4,-,0.00,,Overcast,20,2013-08-08 06:53:00
2:53 AM,64.9,60.1,84,29.84,10.0,ENE,12.7,-,N/A,,Mostly Cloudy,70,2013-08-08 07:53:00
3:53 AM,64.0,60.1,87,29.82,10.0,East,4.6,-,N/A,,Mostly Cloudy,80,2013-08-08 08:53:00
4:53 AM,64.0,60.1,87,29.81,10.0,Calm,Calm,-,N/A,,Partly Cloudy,0,2013-08-08 09:53:00
5:53 AM,63.0,60.1,90,29.83,10.0,Calm,Calm,-,N/A,,Scattered Clouds,0,2013-08-08 10:53:00
6:53 AM,64.0,61.0,90,29.87,7.0,North,8.1,-,N/A,,Mostly Cloudy,10,2013-08-08 11:53:00
7:31 AM,64.4,60.8,88,30.04,7.0,NNE,8.1,-,0.00,Rain,Light Rain,20,2013-08-08 12:31:00
7:53 AM,64.0,61.0,90,29.89,10.0,NNE,5.8,-,0.00,,Overcast,30,2013-08-08 12:53:00
8:30 AM,64.4,60.8,88,30.05,1.8,NE,9.2,-,0.00,Rain,Heavy Rain,40,2013-08-08 13:30:00
8:37 AM,64.4,60.8,88,30.06,3.0,NNE,4.6,-,0.01,Rain,Light Rain,30,2013-08-08 13:37:00
8:53 AM,64.0,61.0,90,29.93,10.0,NE,8.1,-,0.02,,Overcast,40,2013-08-08 13:53:00
9:10 AM,64.4,60.8,88,30.06,10.0,NE,9.2,-,0.01,,Mostly Cloudy,40,2013-08-08 14:10:00
9:53 AM,66.9,61.0,81,29.92,10.0,North,6.9,-,0.01,,Partly Cloudy,10,2013-08-08 14:53:00
10:53 AM,70.0,61.0,73,29.93,10.0,NNE,10.4,-,N/A,,Mostly Cloudy,20,2013-08-08 15:53:00
11:53 AM,69.1,62.1,78,29.94,10.0,ENE,8.1,-,N/A,,Overcast,60,2013-08-08 16:53:00
12:44 PM,69.8,60.8,73,30.08,10.0,East,8.1,-,N/A,,Overcast,80,2013-08-08 17:44:00
12:53 PM,71.1,61.0,70,29.94,10.0,East,8.1,-,N/A,,Overcast,80,2013-08-08 17:53:00
1:53 PM,73.9,63.0,68,29.93,10.0,East,9.2,-,N/A,,Scattered Clouds,90,2013-08-08 18:53:00
2:22 PM,73.4,62.6,69,30.07,10.0,East,8.1,-,N/A,,Mostly Cloudy,90,2013-08-08 19:22:00
2:53 PM,77.0,62.1,60,29.91,10.0,East,9.2,20.7,N/A,,Mostly Cloudy,100,2013-08-08 19:53:00
3:53 PM,77.0,60.1,56,29.90,10.0,East,8.1,-,N/A,,Overcast,90,2013-08-08 20:53:00
4:53 PM,78.1,62.1,58,29.89,10.0,East,11.5,-,N/A,,Overcast,80,2013-08-08 21:53:00
5:53 PM,79.0,60.1,52,29.87,10.0,ENE,9.2,-,N/A,,Clear,60,2013-08-08 22:53:00
6:53 PM,75.9,62.1,62,29.88,10.0,ENE,8.1,-,N/A,,Clear,60,2013-08-08 23:53:00
7:38 PM,75.2,62.6,65,30.05,10.0,ENE,8.1,-,N/A,Thunderstorm,Scattered Clouds,70,2013-08-09 00:38:00
7:53 PM,75.0,64.0,69,29.89,10.0,East,6.9,-,N/A,Thunderstorm,Mostly Cloudy,80,2013-08-09 00:53:00
8:03 PM,66.2,59.0,78,30.08,3.0,WNW,32.2,44.9,0.00,Rain-Thunderstorm,Light Thunderstorms and Rain,290,2013-08-09 01:03:00
8:05 PM,64.4,57.2,77,30.09,1.2,WNW,27.6,44.9,0.00,Rain-Thunderstorm,Light Thunderstorms and Rain,290,2013-08-09 01:05:00
8:10 PM,60.8,57.2,88,30.08,0.5,West,43.7,54.1,0.01,Fog-Rain-Thunderstorm,Heavy Thunderstorms and Rain,260,2013-08-09 01:10:00
8:14 PM,60.8,57.2,88,30.10,0.5,WSW,28.8,54.1,0.01,Fog-Rain-Thunderstorm,Heavy Thunderstorms and Rain,250,2013-08-09 01:14:00
8:22 PM,62.6,59.0,88,30.10,1.0,West,20.7,41.4,0.02,Rain-Thunderstorm,Heavy Thunderstorms and Rain,260,2013-08-09 01:22:00
8:32 PM,62.6,60.8,94,30.09,2.5,West,38.0,48.3,0.04,Rain-Thunderstorm,Thunderstorms and Rain,280,2013-08-09 01:32:00
8:53 PM,61.0,57.9,90,29.95,2.0,WNW,32.2,39.1,0.06,Rain-Thunderstorm,Heavy Rain,300,2013-08-09 01:53:00
9:12 PM,60.8,57.2,88,30.06,5.0,NW,25.3,34.5,0.02,Rain-Thunderstorm,Rain,310,2013-08-09 02:12:00
9:26 PM,62.6,57.2,82,30.05,3.0,NW,24.2,34.5,0.03,Rain,Rain,320,2013-08-09 02:26:00
9:53 PM,64.9,60.1,84,29.89,5.0,North,21.9,-,0.05,Rain,Rain,350,2013-08-09 02:53:00
10:53 PM,64.9,61.0,87,29.91,10.0,NNE,20.7,31.1,0.03,,Clear,30,2013-08-09 03:53:00
11:02 PM,64.4,62.6,94,30.07,10.0,NNE,17.3,27.6,0.01,,Partly Cloudy,20,2013-08-09 04:02:00
11:22 PM,64.4,62.6,94,30.10,10.0,NNW,10.4,-,0.01,,Mostly Cloudy,330,2013-08-09 04:22:00
11:29 PM,64.4,62.6,94,30.10,10.0,North,8.1,-,0.01,,Mostly Cloudy,350,2013-08-09 04:29:00
11:53 PM,64.9,62.1,90,29.97,10.0,North,15.0,-,0.02,,Overcast,10,2013-08-09 04:53:00